FW3322 Weather Reports


Display with metric or nautical units.
time (UTC)temp
F
wind
direction
speed
MPH
gust
MPH
rain 1hr
in
rain 24hr
in
rain mn
in
humidity
%
barometer
mb
20260904080008 75 123 0.0 0.0 0.00 0.00 0.00 83 1012.7
20260904074514 75 123 0.0 0.0 0.00 0.00 0.00 83 1012.6
20260904073011 75 122 0.0 1.0 0.00 0.00 0.00 84 1012.6
20260904071508 75 132 0.0 1.0 0.00 0.00 0.00 84 1012.7
20260904070013 76 135 0.0 0.0 0.00 0.00 0.00 83 1012.6
20260904064503 76 135 0.0 0.0 0.00 0.00 0.00 83 1012.7
20260904063001 76 135 0.0 1.0 0.00 0.00 0.00 83 1012.6
20260904061558 77 135 0.0 0.0 0.00 0.00 0.00 81 1012.6
20260904060055 78 135 0.0 0.0 0.00 0.00 0.00 80 1012.6
20260904054557 78 136 0.0 0.0 0.00 0.00 0.00 78 1012.4
20260904053053 78 135 0.0 2.0 0.00 0.00 0.00 79 1012.3
20260904051552 78 133 0.0 1.0 0.00 0.00 0.00 78 1012.2
20260904050049 78 112 0.0 0.0 0.00 0.00 0.00 79 1012.2
20260904044548 79 111 0.0 0.0 0.00 0.00 0.00 77 1012.2
20260904043048 80 111 0.0 0.0 0.00 0.00 0.00 76 1012.2
20260904041554 80 111 0.0 0.0 0.00 0.00 0.00 75 1012.2
20260904040046 82 111 0.0 0.0 0.00 0.00 0.00 73 1012.1
20260904034553 82 134 0.0 0.0 0.00 0.00 0.00 70 1012.1
20260904033146 82 135 0.0 0.0 0.00 0.00 0.00 70 1012.0
20260904031548 83 135 0.0 0.0 0.00 0.00 0.00 69 1012.0
20260904030044 83 134 0.0 1.0 0.00 0.00 0.00 69 1011.8
20260904024544 83 128 0.0 1.0 0.00 0.00 0.00 69 1011.8
20260904023043 85 238 0.0 0.0 0.00 0.00 0.00 67 1011.7
20260904021545 86 248 0.0 0.0 0.00 0.00 0.00 65 1011.4
20260904020045 86 248 0.0 0.0 0.00 0.00 0.00 64 1011.2
20260904014546 88 248 0.0 0.0 0.00 0.00 0.00 62 1010.9
20260904013042 89 248 0.0 0.0 0.00 0.00 0.00 60 1010.7
20260904011559 90 248 0.0 0.0 0.00 0.00 0.00 58 1010.7
20260904010043 92 126 0.0 0.0 0.00 0.00 0.00 56 1010.5
20260904004540 93 125 0.0 0.0 0.00 0.00 0.00 54 1010.4
20260904003039 95 133 0.0 1.0 0.00 0.00 0.00 52 1010.2
20260904001539 97 154 0.0 2.0 0.00 0.00 0.00 51 1010.1
20260904000043 98 164 0.0 5.0 0.00 0.00 0.00 50 1010.1
20260903234543 98 132 2.0 8.0 0.00 0.00 0.00 49 1010.1
20260903233036 99 163 3.0 6.0 0.00 0.00 0.00 48 1010.2
20260903231535 99 128 3.0 7.0 0.00 0.00 0.00 48 1010.2
20260903230041 100 142 5.0 9.0 0.00 0.00 0.00 47 1010.1
20260903224527 100 150 1.0 8.0 0.00 0.00 0.00 47 1010.1
20260903223024 99 181 5.0 10.0 0.00 0.00 0.00 47 1010.0
20260903221521 99 142 2.0 7.0 0.00 0.00 0.00 47 1010.1
20260903220020 99 142 4.0 11.0 0.00 0.00 0.00 47 1010.2
20260903214523 99 304 4.0 12.0 0.00 0.00 0.00 48 1010.4
20260903213029 99 130 5.0 10.0 0.00 0.00 0.00 47 1010.6
20260903211519 100 130 6.0 9.0 0.00 0.00 0.00 47 1010.7
20260903210011 99 209 4.0 11.0 0.00 0.00 0.00 48 1010.8
20260903204509 99 161 5.0 10.0 0.00 0.00 0.00 49 1010.9
20260903203020 99 138 5.0 10.0 0.00 0.00 0.00 49 1011.1
20260903201502 98 148 6.0 13.0 0.00 0.00 0.00 50 1011.2
20260903200101 98 153 3.0 11.0 0.00 0.00 0.00 51 1011.3
20260903194557 98 155 4.0 10.0 0.00 0.00 0.00 49 1011.5
20260903193055 98 202 5.0 15.0 0.00 0.00 0.00 50 1011.7
20260903191554 98 212 6.0 12.0 0.00 0.00 0.00 50 1012.0
20260903190044 97 210 4.0 13.0 0.00 0.00 0.00 51 1012.2
20260903184543 96 127 6.0 12.0 0.00 0.00 0.00 53 1012.3
20260903183044 96 146 8.0 13.0 0.00 0.00 0.00 52 1012.5
20260903181535 96 140 4.0 14.0 0.00 0.00 0.00 53 1012.6
20260903180031 95 246 4.0 13.0 0.00 0.00 0.00 54 1012.9
20260903174527 95 150 6.0 10.0 0.00 0.00 0.00 54 1013.0
20260903173026 95 196 6.0 15.0 0.00 0.00 0.00 55 1013.3
20260903171524 93 130 7.0 18.0 0.00 0.00 0.00 56 1013.4
20260903170025 93 186 4.0 10.0 0.00 0.00 0.00 57 1013.8
20260903164520 93 175 2.0 9.0 0.00 0.00 0.00 58 1014.0
20260903163018 91 109 6.0 10.0 0.00 0.00 0.00 59 1014.1
20260903161516 91 147 4.0 10.0 0.00 0.00 0.00 60 1014.1
20260903160014 90 173 5.0 12.0 0.00 0.00 0.00 61 1014.2
20260903154512 90 206 5.0 11.0 0.00 0.00 0.00 61 1014.2
20260903153010 90 205 3.0 14.0 0.00 0.00 0.00 62 1014.2
20260903151508 89 150 3.0 10.0 0.00 0.00 0.00 63 1014.1
20260903150005 88 187 5.0 10.0 0.00 0.00 0.00 65 1014.1
20260903144512 87 227 3.0 11.0 0.00 0.00 0.00 65 1014.2
20260903143058 86 218 1.0 11.0 0.00 0.00 0.00 68 1014.4
20260903141559 86 136 5.0 12.0 0.00 0.00 0.00 68 1014.5
20260903140055 85 203 1.0 9.0 0.00 0.00 0.00 70 1014.5
20260903134552 84 140 3.0 8.0 0.00 0.00 0.00 70 1014.5
20260903133057 83 167 1.0 8.0 0.00 0.00 0.00 73 1014.6
20260903131546 81 178 3.0 8.0 0.00 0.00 0.00 75 1014.3
20260903130049 80 138 1.0 5.0 0.00 0.00 0.00 77 1014.4
20260903124550 78 154 0.0 2.0 0.00 0.00 0.00 80 1014.3
20260903123042 0 0.0 0.0 0.00 0.00 0.00 1014.3
20260903121539 0 0.0 0.0 0.00 0.00 0.00 1014.3
20260903120051 0 0.0 0.0 0.00 0.00 0.00 1014.2
20260903114529 0 0.0 0.0 0.00 0.00 0.00 1014.1
20260903113050 0 0.0 0.0 0.00 0.00 0.00 1014.0
20260903111520 0 0.0 0.0 0.00 0.00 0.00 1013.9
20260903110015 0 0.0 0.0 0.00 0.00 0.00 1013.9
20260903104511 0 0.0 0.0 0.00 0.00 0.00 1013.8
20260903103008 76 134 0.0 2.0 0.00 0.00 0.00 79 1013.6
20260903101520 77 149 0.0 2.0 0.00 0.00 0.00 79 1013.7
20260903100015 77 146 1.0 2.0 0.00 0.00 0.00 79 1013.6
20260903094514 78 131 1.0 4.0 0.00 0.00 0.00 77 1013.6
20260903093003 79 148 1.0 3.0 0.00 0.00 0.00 76 1013.5
20260903091502 79 140 0.0 2.0 0.00 0.00 0.00 76 1013.4
20260903090002 79 146 0.0 2.0 0.00 0.00 0.00 75 1013.5
20260903084604 80 137 0.0 2.0 0.00 0.00 0.00 73 1013.4
20260903083059 81 141 0.0 2.0 0.00 0.00 0.00 72 1013.4
20260903081557 81 146 2.0 5.0 0.00 0.00 0.00 72 1013.2